CW3846 Weather Reports


Display with metric or nautical units.
time (UTC)temp
F
wind
direction
speed
MPH
gust
MPH
rain 1hr
in
rain 24hr
in
rain mn
in
humidity
%
barometer
mb
20240224040040 62 0 0.0 0.0 0.00 0.00 0.00 33 1016.2
20240224035532 62 0 0.0 0.0 0.00 0.00 0.00 32 1016.2
20240224035028 62 0 0.0 0.0 0.00 0.00 0.00 32 1016.2
20240224034534 63 0 0.0 0.0 0.00 0.00 0.00 32 1016.2
20240224034031 63 0 0.0 0.0 0.00 0.00 0.00 31 1016.1
20240224033530 63 0 0.0 0.0 0.00 0.00 0.00 31 1015.9
20240224033050 64 0 0.0 0.0 0.00 0.00 0.00 31 1016.0
20240224032534 65 0 0.0 0.0 0.00 0.00 0.00 30 1015.9
20240224032028 65 0 0.0 0.0 0.00 0.00 0.00 29 1015.9
20240224031544 66 0 0.0 0.0 0.00 0.00 0.00 30 1015.9
20240224031032 66 0 0.0 0.0 0.00 0.00 0.00 28 1016.0
20240224030531 67 0 0.0 0.0 0.00 0.00 0.00 28 1016.0
20240224030038 67 0 0.0 0.0 0.00 0.00 0.00 28 1015.9
20240224025532 67 0 0.0 0.0 0.00 0.00 0.00 25 1015.8
20240224025032 68 0 0.0 0.0 0.00 0.00 0.00 24 1015.7
20240224024538 68 0 0.0 0.0 0.00 0.00 0.00 23 1015.6
20240224024031 69 0 0.0 0.0 0.00 0.00 0.00 22 1015.5
20240224023532 69 0 0.0 0.0 0.00 0.00 0.00 22 1015.6
20240224023036 69 0 0.0 0.0 0.00 0.00 0.00 22 1015.5
20240224022532 70 0 0.0 0.0 0.00 0.00 0.00 21 1015.5
20240224022032 70 0 0.0 0.0 0.00 0.00 0.00 21 1015.3
20240224021533 71 0 0.0 0.0 0.00 0.00 0.00 20 1015.2
20240224021031 71 0 0.0 0.0 0.00 0.00 0.00 20 1015.4
20240224020532 72 0 0.0 0.0 0.00 0.00 0.00 20 1015.3
20240224020041 72 0 0.0 0.0 0.00 0.00 0.00 20 1015.4
20240224015530 72 0 0.0 0.0 0.00 0.00 0.00 19 1015.4
20240224015032 73 0 0.0 0.0 0.00 0.00 0.00 19 1015.4
20240224014535 73 0 0.0 0.0 0.00 0.00 0.00 19 1015.3
20240224014032 74 0 0.0 0.0 0.00 0.00 0.00 18 1015.3
20240224013531 74 0 0.0 0.0 0.00 0.00 0.00 18 1015.3
20240224013036 74 0 0.0 0.0 0.00 0.00 0.00 18 1015.3
20240224012528 75 0 0.0 0.0 0.00 0.00 0.00 17 1015.3
20240224012034 75 0 0.0 0.0 0.00 0.00 0.00 17 1015.2
20240224011541 75 0 0.0 0.0 0.00 0.00 0.00 16 1015.3
20240224011031 75 0 0.0 0.0 0.00 0.00 0.00 16 1015.3
20240224010529 76 0 0.0 0.0 0.00 0.00 0.00 16 1015.3
20240224010032 76 0 0.0 0.0 0.00 0.00 0.00 16 1015.2
20240224005528 76 0 0.0 0.0 0.00 0.00 0.00 15 1015.3
20240224005028 76 0 0.0 0.0 0.00 0.00 0.00 16 1015.2
20240224004546 76 0 0.0 0.0 0.00 0.00 0.00 15 1015.1
20240224004029 76 0 0.0 0.0 0.00 0.00 0.00 15 1015.1
20240224003532 76 0 0.0 0.0 0.00 0.00 0.00 15 1015.1
20240224003039 76 0 0.0 0.0 0.00 0.00 0.00 15 1015.1
20240224002530 76 0 0.0 0.0 0.00 0.00 0.00 15 1015.1
20240224002029 76 0 0.0 0.0 0.00 0.00 0.00 15 1015.1
20240224001531 76 0 0.0 0.0 0.00 0.00 0.00 15 1015.1
20240224001032 76 0 0.0 4.0 0.00 0.00 0.00 15 1015.2
20240224000531 76 0 0.0 6.0 0.00 0.00 0.00 15 1015.1
20240224000037 76 0 1.0 6.0 0.00 0.00 0.00 14 1015.2
20240223235529 76 111 0.0 6.0 0.00 0.00 0.00 14 1015.2
20240223235032 76 0 0.0 6.0 0.00 0.00 0.00 14 1015.1
20240223234541 76 0 0.0 6.0 0.00 0.00 0.00 15 1015.0
20240223234028 76 0 1.0 6.0 0.00 0.00 0.00 14 1015.0
20240223233531 76 0 0.0 2.0 0.00 0.00 0.00 14 1015.0
20240223233039 77 0 0.0 0.0 0.00 0.00 0.00 15 1015.1
20240223232531 77 0 0.0 0.0 0.00 0.00 0.00 15 1015.1
20240223232033 77 0 0.0 4.0 0.00 0.00 0.00 15 1015.1
20240223231538 76 0 0.0 4.0 0.00 0.00 0.00 15 1015.3
20240223231032 76 0 0.0 2.0 0.00 0.00 0.00 15 1015.3
20240223230529 76 0 0.0 4.0 0.00 0.00 0.00 15 1015.3
20240223230033 76 0 1.0 4.0 0.00 0.00 0.00 15 1015.3
20240223225529 76 0 0.0 3.0 0.00 0.00 0.00 15 1015.3
20240223225034 77 0 0.0 3.0 0.00 0.00 0.00 15 1015.4
20240223224536 77 92 0.0 2.0 0.00 0.00 0.00 14 1015.5
20240223224029 77 0 0.0 1.0 0.00 0.00 0.00 15 1015.5
20240223223531 77 0 0.0 1.0 0.00 0.00 0.00 15 1015.4
20240223223035 77 0 0.0 3.0 0.00 0.00 0.00 15 1015.5
20240223222530 77 0 0.0 3.0 0.00 0.00 0.00 15 1015.5
20240223222030 77 0 0.0 3.0 0.00 0.00 0.00 14 1015.5
20240223221534 77 0 0.0 3.0 0.00 0.00 0.00 15 1015.8
20240223221029 77 0 0.0 3.0 0.00 0.00 0.00 15 1015.8
20240223220529 77 0 0.0 2.0 0.00 0.00 0.00 15 1015.9
20240223220038 77 0 0.0 1.0 0.00 0.00 0.00 16 1016.0
20240223215528 77 0 0.0 4.0 0.00 0.00 0.00 16 1016.1
20240223215029 77 0 0.0 4.0 0.00 0.00 0.00 15 1016.3
20240223214535 76 0 0.0 2.0 0.00 0.00 0.00 15 1016.5
20240223214028 76 0 0.0 2.0 0.00 0.00 0.00 15 1016.5
20240223213529 76 0 0.0 7.0 0.00 0.00 0.00 16 1016.6
20240223213036 76 0 0.0 7.0 0.00 0.00 0.00 16 1016.7
20240223212528 75 0 0.0 8.0 0.00 0.00 0.00 17 1016.8
20240223212032 75 0 0.0 8.0 0.00 0.00 0.00 16 1016.9
20240223211544 76 110 1.0 7.0 0.00 0.00 0.00 16 1017.0
20240223211032 76 113 0.0 10.0 0.00 0.00 0.00 17 1017.1
20240223210532 75 0 0.0 10.0 0.00 0.00 0.00 17 1017.0
20240223210041 75 113 1.0 10.0 0.00 0.00 0.00 15 1017.2
20240223205533 76 0 0.0 2.0 0.00 0.00 0.00 16 1017.2
20240223205028 76 42 0.0 0.0 0.00 0.00 0.00 16 1017.4
20240223204537 76 0 0.0 0.0 0.00 0.00 0.00 16 1017.5
20240223204031 75 0 0.0 1.0 0.00 0.00 0.00 17 1017.6
20240223203530 74 0 0.0 1.0 0.00 0.00 0.00 17 1017.7
20240223203039 75 0 0.0 1.0 0.00 0.00 0.00 16 1017.6
20240223202528 74 0 0.0 0.0 0.00 0.00 0.00 17 1017.7
20240223202029 74 0 0.0 0.0 0.00 0.00 0.00 17 1017.8
20240223201545 73 0 0.0 0.0 0.00 0.00 0.00 17 1018.0
20240223201030 73 0 0.0 0.0 0.00 0.00 0.00 18 1018.0
20240223200529 72 0 0.0 0.0 0.00 0.00 0.00 17 1018.3
20240223200049 72 0 0.0 0.0 0.00 0.00 0.00 18 1018.4
20240223195531 72 0 0.0 0.0 0.00 0.00 0.00 18 1018.3
20240223195031 72 0 0.0 0.0 0.00 0.00 0.00 19 1018.5
20240223194533 71 0 0.0 0.0 0.00 0.00 0.00 19 1018.6
20240223194027 71 0 0.0 2.0 0.00 0.00 0.00 19 1018.6
20240223193528 71 0 0.0 2.0 0.00 0.00 0.00 18 1018.7
20240223193050 70 0 0.0 0.0 0.00 0.00 0.00 18 1018.8
20240223192531 71 0 0.0 4.0 0.00 0.00 0.00 19 1018.9
20240223192028 70 0 0.0 4.0 0.00 0.00 0.00 21 1019.0
20240223191538 70 0 0.0 4.0 0.00 0.00 0.00 21 1019.1
20240223191031 70 113 0.0 2.0 0.00 0.00 0.00 21 1019.1
20240223190529 70 0 0.0 2.0 0.00 0.00 0.00 21 1019.1
20240223190035 70 0 0.0 2.0 0.00 0.00 0.00 21 1019.2
20240223185531 70 0 0.0 2.0 0.00 0.00 0.00 22 1019.3
20240223185028 70 0 0.0 3.0 0.00 0.00 0.00 23 1019.4
20240223184539 70 0 0.0 3.0 0.00 0.00 0.00 22 1019.5
20240223184029 70 0 0.0 3.0 0.00 0.00 0.00 23 1019.4
20240223183529 70 0 0.0 2.0 0.00 0.00 0.00 23 1019.3
20240223183033 69 0 0.0 2.0 0.00 0.00 0.00 24 1019.4
20240223182531 69 0 0.0 3.0 0.00 0.00 0.00 24 1019.5
20240223182029 68 0 0.0 3.0 0.00 0.00 0.00 25 1019.6
20240223181546 68 0 0.0 4.0 0.00 0.00 0.00 26 1019.7
20240223181029 68 0 0.0 4.0 0.00 0.00 0.00 25 1019.6
20240223180528 68 0 0.0 4.0 0.00 0.00 0.00 25 1019.8
20240223180034 68 0 0.0 4.0 0.00 0.00 0.00 27 1019.8
20240223175529 67 0 0.0 4.0 0.00 0.00 0.00 27 1019.9
20240223175030 67 0 0.0 3.0 0.00 0.00 0.00 27 1019.9
20240223174544 67 0 0.0 3.0 0.00 0.00 0.00 27 1020.1
20240223174028 67 0 0.0 2.0 0.00 0.00 0.00 28 1020.1
20240223173531 67 0 0.0 2.0 0.00 0.00 0.00 27 1020.0
20240223173040 66 0 0.0 3.0 0.00 0.00 0.00 27 1020.0
20240223172528 66 0 0.0 3.0 0.00 0.00 0.00 28 1020.0
20240223172029 66 56 0.0 4.0 0.00 0.00 0.00 28 1020.1
20240223171532 65 0 0.0 4.0 0.00 0.00 0.00 28 1020.0
20240223171032 64 0 0.0 3.0 0.00 0.00 0.00 33 1020.0
20240223170533 64 0 0.0 3.0 0.00 0.00 0.00 39 1020.0
20240223170036 63 0 0.0 3.0 0.00 0.00 0.00 40 1020.1
20240223165529 63 115 0.0 2.0 0.00 0.00 0.00 40 1020.1
20240223165031 63 0 0.0 1.0 0.00 0.00 0.00 37 1020.0
20240223164541 62 0 0.0 0.0 0.00 0.00 0.00 43 1020.0
20240223164031 61 0 0.0 0.0 0.00 0.00 0.00 48 1020.1
20240223163529 60 0 0.0 0.0 0.00 0.00 0.00 48 1020.0
20240223163038 60 0 0.0 0.0 0.00 0.00 0.00 50 1020.2
20240223162528 60 0 0.0 0.0 0.00 0.00 0.00 49 1020.4
20240223162032 60 0 0.0 0.0 0.00 0.00 0.00 48 1020.3
20240223161537 59 0 0.0 0.0 0.00 0.00 0.00 48 1020.4
20240223161029 59 0 0.0 0.0 0.00 0.00 0.00 49 1020.4
20240223160529 58 0 0.0 0.0 0.00 0.00 0.00 50 1020.4
20240223160039 58 0 0.0 0.0 0.00 0.00 0.00 51 1020.4
20240223155528 57 0 0.0 0.0 0.00 0.00 0.00 52 1020.3
20240223155028 57 0 0.0 2.0 0.00 0.00 0.00 53 1020.2
20240223154544 57 0 0.0 2.0 0.00 0.00 0.00 53 1020.2
20240223154029 57 0 0.0 2.0 0.00 0.00 0.00 53 1020.0
20240223153531 56 0 0.0 4.0 0.00 0.00 0.00 54 1019.9
20240223153044 56 115 1.0 6.0 0.00 0.00 0.00 55 1019.8
20240223152531 56 0 0.0 6.0 0.00 0.00 0.00 56 1019.7
20240223152034 55 0 1.0 4.0 0.00 0.00 0.00 57 1019.8
20240223151611 55 115 0.0 4.0 0.00 0.00 0.00 58 1019.7
20240223151031 54 0 0.0 3.0 0.00 0.00 0.00 59 1019.6
20240223150529 54 0 0.0 3.0 0.00 0.00 0.00 60 1019.6
20240223150039 53 0 0.0 3.0 0.00 0.00 0.00 61 1019.6
20240223145530 52 121 0.0 1.0 0.00 0.00 0.00 64 1019.6
20240223145029 50 0 0.0 0.0 0.00 0.00 0.00 66 1019.4
20240223144547 49 0 0.0 0.0 0.00 0.00 0.00 67 1019.3
20240223144029 49 0 0.0 0.0 0.00 0.00 0.00 68 1019.4
20240223143532 48 0 0.0 0.0 0.00 0.00 0.00 68 1019.4
20240223143054 48 0 0.0 0.0 0.00 0.00 0.00 67 1019.4
20240223142531 49 0 0.0 0.0 0.00 0.00 0.00 66 1019.2
20240223142031 49 0 0.0 0.0 0.00 0.00 0.00 66 1019.2
20240223141537 49 0 0.0 0.0 0.00 0.00 0.00 64 1019.2
20240223141034 49 0 0.0 0.0 0.00 0.00 0.00 64 1019.2
20240223140531 49 0 0.0 0.0 0.00 0.00 0.00 62 1019.2
20240223140043 49 0 0.0 0.0 0.00 0.00 0.00 63 1019.3
20240223135532 49 0 0.0 0.0 0.00 0.00 0.00 63 1019.2
20240223135031 50 0 0.0 0.0 0.00 0.00 0.00 62 1019.2
20240223134536 50 0 0.0 0.0 0.00 0.00 0.00 62 1019.1
20240223134030 50 0 0.0 0.0 0.00 0.00 0.00 61 1019.0
20240223133528 50 0 0.0 0.0 0.00 0.00 0.00 60 1019.1
20240223133034 51 0 0.0 0.0 0.00 0.00 0.00 59 1019.1
20240223132528 51 0 0.0 0.0 0.00 0.00 0.00 59 1019.1
20240223132029 51 0 0.0 0.0 0.00 0.00 0.00 58 1019.1
20240223131546 52 0 0.0 0.0 0.00 0.00 0.00 58 1019.0
20240223131029 52 0 0.0 0.0 0.00 0.00 0.00 57 1018.9
20240223130529 52 0 0.0 0.0 0.00 0.00 0.00 57 1018.9
20240223130041 52 0 0.0 0.0 0.00 0.00 0.00 56 1018.8
20240223125529 52 0 0.0 0.0 0.00 0.00 0.00 56 1018.8
20240223125032 53 0 0.0 0.0 0.00 0.00 0.00 54 1018.7
20240223124535 53 0 0.0 0.0 0.00 0.00 0.00 54 1018.6
20240223124031 53 0 0.0 0.0 0.00 0.00 0.00 53 1018.6
20240223123529 53 0 0.0 0.0 0.00 0.00 0.00 52 1018.6
20240223123034 53 0 0.0 0.0 0.00 0.00 0.00 52 1018.7
20240223122529 53 0 0.0 0.0 0.00 0.00 0.00 52 1018.5
20240223122028 53 0 0.0 0.0 0.00 0.00 0.00 52 1018.5
20240223121539 53 0 0.0 0.0 0.00 0.00 0.00 52 1018.3
20240223121029 53 0 0.0 0.0 0.00 0.00 0.00 52 1018.5
20240223120530 53 0 0.0 0.0 0.00 0.00 0.00 53 1018.5
20240223120054 52 0 0.0 0.0 0.00 0.00 0.00 54 1018.5
20240223115528 52 0 0.0 0.0 0.00 0.00 0.00 54 1018.5
20240223115028 52 0 0.0 0.0 0.00 0.00 0.00 54 1018.6
20240223114539 52 0 0.0 0.0 0.00 0.00 0.00 56 1018.4
20240223114028 52 0 0.0 0.0 0.00 0.00 0.00 56 1018.3
20240223113528 52 0 0.0 0.0 0.00 0.00 0.00 57 1018.2
20240223113040 52 0 0.0 0.0 0.00 0.00 0.00 57 1018.1
20240223112528 52 0 0.0 0.0 0.00 0.00 0.00 58 1018.2
20240223112028 52 0 0.0 0.0 0.00 0.00 0.00 58 1018.2
20240223111536 52 0 0.0 0.0 0.00 0.00 0.00 59 1018.2
20240223111028 52 0 0.0 0.0 0.00 0.00 0.00 59 1018.3
20240223110528 52 0 0.0 0.0 0.00 0.00 0.00 58 1018.3
20240223110035 52 0 0.0 0.0 0.00 0.00 0.00 58 1018.5
20240223105537 52 0 0.0 0.0 0.00 0.00 0.00 58 1018.5
20240223105028 52 0 0.0 0.0 0.00 0.00 0.00 57 1018.4
20240223104533 52 0 0.0 0.0 0.00 0.00 0.00 57 1018.3
20240223104028 52 0 0.0 2.0 0.00 0.00 0.00 57 1018.3
20240223103532 52 0 0.0 2.0 0.00 0.00 0.00 55 1018.2
20240223103045 51 0 0.0 1.0 0.00 0.00 0.00 57 1018.2
20240223102528 51 0 0.0 0.0 0.00 0.00 0.00 59 1018.2
20240223102029 51 0 0.0 0.0 0.00 0.00 0.00 60 1018.1
20240223101537 51 0 0.0 0.0 0.00 0.00 0.00 60 1018.3
20240223101029 51 0 0.0 0.0 0.00 0.00 0.00 60 1018.3
20240223100528 51 0 0.0 0.0 0.00 0.00 0.00 59 1018.4
20240223100038 52 0 0.0 0.0 0.00 0.00 0.00 59 1018.4
20240223095528 52 0 0.0 0.0 0.00 0.00 0.00 59 1018.4
20240223095029 52 0 0.0 0.0 0.00 0.00 0.00 58 1018.6
20240223094536 52 0 0.0 0.0 0.00 0.00 0.00 58 1018.8
20240223094028 52 0 0.0 0.0 0.00 0.00 0.00 58 1018.8
20240223093528 52 0 0.0 0.0 0.00 0.00 0.00 58 1019.0
20240223093103 52 0 0.0 0.0 0.00 0.00 0.00 58 1019.1
20240223092528 52 0 0.0 0.0 0.00 0.00 0.00 58 1019.1
20240223092031 52 0 0.0 0.0 0.00 0.00 0.00 58 1019.1
20240223091542 52 0 0.0 0.0 0.00 0.00 0.00 58 1019.0
20240223091029 52 0 0.0 0.0 0.00 0.00 0.00 58 1019.1
20240223090529 52 0 0.0 0.0 0.00 0.00 0.00 58 1019.2
20240223090039 52 0 0.0 0.0 0.00 0.00 0.00 58 1019.3
20240223085528 53 0 0.0 0.0 0.00 0.00 0.00 58 1019.4
20240223085031 53 0 0.0 0.0 0.00 0.00 0.00 57 1019.5
20240223084536 53 0 0.0 0.0 0.00 0.00 0.00 56 1019.4
20240223084033 53 0 0.0 0.0 0.00 0.00 0.00 57 1019.4
20240223083529 53 0 0.0 0.0 0.00 0.00 0.00 56 1019.4
20240223083038 54 0 0.0 0.0 0.00 0.00 0.00 56 1019.2
20240223082528 54 0 0.0 0.0 0.00 0.00 0.00 55 1019.4
20240223082029 54 0 0.0 0.0 0.00 0.00 0.00 55 1019.3
20240223081545 54 0 0.0 0.0 0.00 0.00 0.00 55 1019.2
20240223081028 55 0 0.0 0.0 0.00 0.00 0.00 54 1019.3
20240223080528 55 0 0.0 0.0 0.00 0.00 0.00 54 1019.2
20240223080046 55 0 0.0 0.0 0.00 0.00 0.00 53 1019.2
20240223075529 55 0 0.0 0.0 0.00 0.00 0.00 53 1019.1
20240223075028 55 0 0.0 0.0 0.00 0.00 0.00 52 1019.1
20240223074537 56 0 0.0 0.0 0.00 0.00 0.00 52 1019.0
20240223074029 56 0 0.0 0.0 0.00 0.00 0.00 51 1019.1
20240223073528 56 0 0.0 0.0 0.00 0.00 0.00 51 1019.2
20240223073035 56 0 0.0 0.0 0.00 0.00 0.00 51 1019.3
20240223072530 57 0 0.0 0.0 0.00 0.00 0.00 50 1019.3
20240223072028 57 0 0.0 0.0 0.00 0.00 0.00 49 1019.4
20240223071539 57 0 0.0 0.0 0.00 0.00 0.00 50 1019.5
20240223071032 57 0 0.0 0.0 0.00 0.00 0.00 49 1019.4
20240223070528 57 0 0.0 0.0 0.00 0.00 0.00 49 1019.5
20240223070033 57 0 0.0 0.0 0.00 0.00 0.00 49 1019.4
20240223065529 57 0 0.0 0.0 0.00 0.00 0.00 49 1019.4
20240223065028 57 0 0.0 0.0 0.00 0.00 0.00 49 1019.5
20240223064534 57 0 0.0 0.0 0.00 0.00 0.00 49 1019.5
20240223064028 57 0 0.0 0.0 0.00 0.00 0.00 49 1019.6
20240223063530 57 0 0.0 0.0 0.00 0.00 0.00 50 1019.6
20240223063047 57 0 0.0 0.0 0.00 0.00 0.00 50 1019.6
20240223062529 57 0 0.0 0.0 0.00 0.00 0.00 50 1019.7
20240223062032 58 0 0.0 0.0 0.00 0.00 0.00 50 1019.6
20240223061533 58 0 0.0 0.0 0.00 0.00 0.00 50 1019.7
20240223061028 58 0 0.0 0.0 0.00 0.00 0.00 50 1019.6
20240223060528 58 0 0.0 0.0 0.00 0.00 0.00 49 1019.7
20240223060031 59 0 0.0 0.0 0.00 0.00 0.00 49 1019.6
20240223055528 59 0 0.0 0.0 0.00 0.00 0.00 49 1019.7
20240223055028 59 0 0.0 0.0 0.00 0.00 0.00 48 1019.7
20240223054532 59 0 0.0 0.0 0.00 0.00 0.00 47 1019.8
20240223054030 59 0 0.0 0.0 0.00 0.00 0.00 47 1019.8
20240223053530 59 0 0.0 0.0 0.00 0.00 0.00 46 1019.8
20240223053029 59 0 0.0 0.0 0.00 0.00 0.00 47 1019.8
20240223052528 59 0 0.0 0.0 0.00 0.00 0.00 47 1019.7
20240223052030 59 0 0.0 0.0 0.00 0.00 0.00 47 1019.6
20240223051531 60 0 0.0 0.0 0.00 0.00 0.00 47 1019.7
20240223051028 60 0 0.0 0.0 0.00 0.00 0.00 47 1019.7
20240223050529 60 0 0.0 0.0 0.00 0.00 0.00 46 1019.6
20240223050034 60 0 0.0 0.0 0.00 0.00 0.00 46 1019.7
20240223045530 60 0 0.0 0.0 0.00 0.00 0.00 46 1019.7
20240223045028 61 0 0.0 0.0 0.00 0.00 0.00 45 1019.7
20240223044530 61 0 0.0 0.0 0.00 0.00 0.00 45 1019.6
20240223044028 61 0 0.0 0.0 0.00 0.00 0.00 44 1019.6
20240223043532 61 0 0.0 0.0 0.00 0.00 0.00 44 1019.6
20240223043058 61 0 0.0 0.0 0.00 0.00 0.00 43 1019.7
20240223042528 61 0 0.0 0.0 0.00 0.00 0.00 43 1019.5
20240223042028 62 0 0.0 0.0 0.00 0.00 0.00 43 1019.5
20240223041536 62 0 0.0 0.0 0.00 0.00 0.00 43 1019.5
20240223041030 62 0 0.0 0.0 0.00 0.00 0.00 43 1019.6
20240223040528 62 0 0.0 0.0 0.00 0.00 0.00 43 1019.6